Flag for China Weather past 2 weeks in Langfang, Hebei, China

Now
93 °F

Passing clouds.


Feels Like: 93 °F
Forecast: 73 / 98 °F
Wind: 13 mph from South

Location: Beijing Airport

Current Time: Jul 26, 2014 at 6:04:58 PM

Latest Report: Jul 26, 2014 at 5:30 PM


Visibility: N/A

Pressure: 29.74 "Hg

Humidity: 34%

Dew point: 61 °F

Location of LangfangLocation

Historic Weather in Langfang — Graph

°F

Langfang temperature yesterday

Maximum temperature yesterday: 93 °F (at 2:30 PM)
Minimum temperature yesterday: 68 °F (at 3:00 AM)
Average temperature yesterday: 81 °F

Past Weeks' High & Low Weather Summary

 TemperatureHumidityPressure
High99 °F (Jul 19, 4:00 PM)94% (Jul 25, 1:30 AM)29.83 "Hg (Jul 25, 1:30 AM)
Low68 °F (Jul 14, 5:00 AM)22% (Jul 13, 3:30 PM)29.50 "Hg (Jul 11, 5:00 PM)
Average83 °F58%29.66 "Hg
* Reported Jul 11 5:00 PM — Jul 26 5:00 PM, Langfang, Weather by CustomWeather, © 2014

Note: Actual official high and low records may vary slightly from our data, if they occured in-between our weather recording intervals... More about our weather records

Advertising

Langfang weather history for previous 24 hours

 ConditionsComfort  
Time TempWeatherWind HumidityBarometerVisibility
5:00 PM
Jul 26
95 °FSunny.13 mph32%29.74 "Hg10 mi
4:30 PM95 °FPassing clouds.10 mph32%29.74 "HgN/A
4:00 PM95 °FPassing clouds.13 mph32%29.74 "HgN/A
3:30 PM97 °FPassing clouds.10 mph32%29.74 "HgN/A
3:00 PM95 °FPassing clouds.8 mph34%29.74 "HgN/A
2:30 PM95 °FPassing clouds.10 mph39%29.74 "HgN/A
2:00 PM93 °FPassing clouds.8 mph39%29.77 "HgN/A
1:30 PM93 °FPassing clouds.6 mph41%29.77 "HgN/A
1:00 PM93 °FClear.3 mph41%29.77 "Hg4 mi
12:30 PM91 °FHaze.6 mph46%29.80 "Hg3 mi
12:00 PM90 °FHaze.3 mph49%29.80 "Hg3 mi
11:30 AM90 °FHaze.3 mph49%29.80 "Hg3 mi
11:00 AM88 °FHaze.3 mph52%29.80 "Hg2 mi
10:30 AM88 °FHaze.3 mph52%29.80 "Hg2 mi
10:00 AM86 °FHaze.1 mph55%29.80 "Hg2 mi
9:30 AM84 °FHaze.1 mph58%29.80 "Hg2 mi
9:00 AM84 °FHaze.1 mph58%29.80 "Hg3 mi
8:30 AM82 °FHaze.1 mph62%29.80 "Hg2 mi
8:00 AM81 °FHaze.1 mph66%29.80 "Hg2 mi
7:30 AM79 °FFog.1 mph70%29.80 "Hg2 mi
7:00 AM77 °FFog.1 mph74%29.80 "Hg3 mi
6:30 AM73 °FFog.1 mph78%29.77 "Hg3 mi
6:00 AM72 °FClear.1 mph83%29.77 "Hg4 mi
5:30 AM70 °FClear.1 mph83%29.77 "Hg4 mi
5:00 AM72 °FClear.1 mph78%29.77 "Hg4 mi
4:30 AM72 °FClear.1 mph78%29.74 "Hg4 mi
4:00 AM73 °FClear.3 mph74%29.74 "Hg4 mi
3:30 AM73 °FClear.1 mph74%29.74 "Hg4 mi
3:00 AM73 °FClear.1 mph78%29.71 "Hg4 mi
2:30 AM73 °FClear.1 mph74%29.71 "Hg5 mi
2:00 AM75 °FClear.1 mph69%29.71 "Hg5 mi
1:30 AM75 °FClear.3 mph69%29.71 "Hg10 mi
1:00 AM77 °FClear.3 mph65%29.74 "Hg10 mi
12:30 AM79 °FClear.3 mph58%29.71 "Hg10 mi
12:00 AM79 °FClear.3 mph54%29.71 "Hg10 mi
11:30 PM
Jul 25
79 °FClear.3 mph54%29.74 "Hg10 mi
11:00 PM79 °FClear.3 mph54%29.74 "Hg10 mi
10:30 PM79 °FClear.3 mph54%29.71 "Hg10 mi
10:00 PM81 °FClear.6 mph48%29.71 "Hg10 mi
9:30 PM82 °FClear.3 mph45%29.71 "Hg10 mi
9:00 PM82 °FClear.3 mph45%29.71 "Hg10 mi
8:30 PM82 °FClear.6 mph45%29.71 "Hg10 mi
8:00 PM84 °FClear.6 mph40%29.68 "Hg10 mi
7:30 PM86 °FSunny.6 mph40%29.68 "Hg10 mi
7:00 PM88 °FSunny.10 mph38%29.65 "Hg10 mi
6:30 PM88 °FPassing clouds.10 mph38%29.65 "HgN/A
6:00 PM90 °FSunny.8 mph36%29.65 "Hg10 mi
Weather by CustomWeather, © 2014

See weather overviewHow to use our weather pages